When you browse on this site, cookies collect data to enhance your experience and personalize the content and advertising you see.
Visit our Privacy Policy to learn more. By continuing to use the site, you agree to this use of cookies and data.

Previsão horária em Kitzbuel

Hoje, 27 Setembro, Domingo

Tempo Temperatura Precipitação Vento Pressão Humidade
00:00 +1°C° 0 mm 1 m/s 666 mmHg 90%
01:00 +3°C° 0 mm 1 m/s 666 mmHg 89%
02:00 +2°C° 0 mm 1 m/s 666 mmHg 88%
03:00 +2°C° 0 mm 1 m/s 666 mmHg 88%
04:00 +2°C° 0 mm 1 m/s 666 mmHg 88%
05:00 +3°C° 0 mm 1 m/s 666 mmHg 87%
06:00 +3°C° 0 mm 1 m/s 667 mmHg 87%
07:00 +4°C° 0 mm 1 m/s 667 mmHg 87%
08:00 +6°C° 0 mm 1 m/s 668 mmHg 77%
09:00 +8°C° 0 mm 1 m/s 668 mmHg 67%
10:00 +11°C° 0 mm 1 m/s 669 mmHg 58%
11:00 +12°C° 0 mm 1 m/s 669 mmHg 54%
12:00 +13°C° 0 mm 1 m/s 669 mmHg 51%
13:00 +13°C° 0 mm 2 m/s 669 mmHg 47%
14:00 +13°C° 0.1 mm 2 m/s 669 mmHg 54%
15:00 +12°C° 0.1 mm 2 m/s 669 mmHg 61%
16:00 +10°C° 0.1 mm 2 m/s 668 mmHg 68%
17:00 +9°C° 0.1 mm 1 m/s 668 mmHg 77%
18:00 +7°C° 0.1 mm 1 m/s 669 mmHg 85%
19:00 +5°C° 0.1 mm 0 m/s 669 mmHg 94%
20:00 +4°C° 0 mm 0 m/s 669 mmHg 94%
21:00 +4°C° 0 mm 0 m/s 668 mmHg 94%
22:00 +4°C° 0 mm 0 m/s 668 mmHg 94%
23:00 +4°C° 0.2 mm 0 m/s 668 mmHg 95%

Amanhã, 28 Setembro, Segunda-feira

Tempo Temperatura Precipitação Vento Pressão Humidade
00:00 +4°C° 0.2 mm 0 m/s 669 mmHg 96%
01:00 +6°C° 0.2 mm 1 m/s 669 mmHg 97%
02:00 +6°C° 0.4 mm 1 m/s 668 mmHg 97%
03:00 +6°C° 0.4 mm 1 m/s 668 mmHg 98%
04:00 +6°C° 0.4 mm 1 m/s 668 mmHg 98%
05:00 +6°C° 0.6 mm 1 m/s 668 mmHg 98%
06:00 +6°C° 0.6 mm 1 m/s 668 mmHg 98%
07:00 +6°C° 0.6 mm 1 m/s 668 mmHg 99%
08:00 +6°C° 0.9 mm 1 m/s 669 mmHg 98%
09:00 +6°C° 0.9 mm 1 m/s 669 mmHg 98%
10:00 +6°C° 0.9 mm 1 m/s 669 mmHg 98%
11:00 +6°C° 0.3 mm 1 m/s 669 mmHg 98%
12:00 +6°C° 0.3 mm 1 m/s 670 mmHg 97%
13:00 +6°C° 0.3 mm 1 m/s 670 mmHg 97%
14:00 +6°C° 0.1 mm 1 m/s 670 mmHg 97%
15:00 +6°C° 0.1 mm 1 m/s 671 mmHg 97%
16:00 +7°C° 0.1 mm 1 m/s 671 mmHg 97%
17:00 +6°C° 0.2 mm 1 m/s 672 mmHg 97%
18:00 +6°C° 0.2 mm 1 m/s 672 mmHg 97%
19:00 +6°C° 0.2 mm 1 m/s 673 mmHg 98%
20:00 +6°C° 0.1 mm 1 m/s 673 mmHg 98%
21:00 +6°C° 0.1 mm 1 m/s 674 mmHg 98%
22:00 +6°C° 0.1 mm 1 m/s 674 mmHg 98%
23:00 +6°C° 0.3 mm 1 m/s 674 mmHg 98%

Depois de amanhã, 29 Setembro, Terça-feira

Tempo Temperatura Precipitação Vento Pressão Humidade
00:00 +6°C° 0.3 mm 1 m/s 675 mmHg 98%
01:00 +6°C° 0.3 mm 1 m/s 675 mmHg 98%
02:00 +6°C° 0.2 mm 1 m/s 675 mmHg 97%
03:00 +6°C° 0.2 mm 1 m/s 675 mmHg 97%
04:00 +6°C° 0.2 mm 1 m/s 675 mmHg 97%
05:00 +6°C° 0 mm 1 m/s 675 mmHg 95%
06:00 +5°C° 0 mm 1 m/s 676 mmHg 94%
07:00 +5°C° 0 mm 1 m/s 676 mmHg 93%
08:00 +7°C° 0 mm 1 m/s 676 mmHg 86%
09:00 +10°C° 0 mm 1 m/s 677 mmHg 79%
10:00 +12°C° 0 mm 1 m/s 677 mmHg 72%
11:00 +13°C° 0 mm 1 m/s 677 mmHg 66%
12:00 +14°C° 0 mm 1 m/s 678 mmHg 60%
13:00 +15°C° 0 mm 1 m/s 678 mmHg 54%
14:00 +14°C° 0 mm 1 m/s 677 mmHg 60%
15:00 +13°C° 0 mm 1 m/s 677 mmHg 66%
16:00 +12°C° 0 mm 1 m/s 676 mmHg 72%
17:00 +11°C° 0 mm 1 m/s 677 mmHg 77%
18:00 +10°C° 0 mm 1 m/s 677 mmHg 82%
19:00 +8°C° 0 mm 0 m/s 677 mmHg 86%
20:00 +9°C° 0 mm 1 m/s 677 mmHg 87%
21:00 +9°C° 0 mm 1 m/s 677 mmHg 88%
22:00 +9°C° 0 mm 1 m/s 677 mmHg 88%
23:00 +9°C° 0.2 mm 1 m/s 677 mmHg 90%

30 Setembro, Quarta-feira

Tempo Temperatura Precipitação Vento Pressão Humidade
00:00 +9°C° 0.2 mm 1 m/s 677 mmHg 91%
01:00 +9°C° 0.2 mm 1 m/s 677 mmHg 93%
02:00 +8°C° 0.1 mm 1 m/s 677 mmHg 93%
03:00 +8°C° 0.1 mm 1 m/s 677 mmHg 94%
04:00 +8°C° 0.1 mm 1 m/s 676 mmHg 94%
05:00 +9°C° 0.1 mm 1 m/s 676 mmHg 95%
06:00 +8°C° 0.1 mm 0 m/s 676 mmHg 95%
07:00 +8°C° 0.1 mm 0 m/s 676 mmHg 95%
08:00 +8°C° 0.2 mm 0 m/s 676 mmHg 95%
09:00 +9°C° 0.2 mm 0 m/s 676 mmHg 95%
10:00 +9°C° 0.2 mm 0 m/s 676 mmHg 94%
11:00 +10°C° 0.1 mm 0 m/s 676 mmHg 91%
12:00 +11°C° 0.1 mm 0 m/s 676 mmHg 88%
13:00 +13°C° 0.1 mm 1 m/s 676 mmHg 85%
14:00 +14°C° 0 mm 1 m/s 676 mmHg 83%
15:00 +14°C° 0 mm 1 m/s 675 mmHg 82%
16:00 +14°C° 0 mm 1 m/s 675 mmHg 80%
17:00 +12°C° 0 mm 1 m/s 675 mmHg 85%
18:00 +11°C° 0 mm 1 m/s 675 mmHg 91%
19:00 +9°C° 0 mm 1 m/s 674 mmHg 96%
20:00 +9°C° 0 mm 1 m/s 674 mmHg 95%
21:00 +8°C° 0 mm 1 m/s 674 mmHg 95%
22:00 +8°C° 0 mm 1 m/s 674 mmHg 94%
23:00 +8°C° 0 mm 1 m/s 674 mmHg 93%

1 Outubro, Quinta-feira

Tempo Temperatura Precipitação Vento Pressão Humidade
00:00 +7°C° 0 mm 1 m/s 673 mmHg 92%
01:00 +7°C° 0 mm 1 m/s 673 mmHg 90%
02:00 +7°C° 0 mm 1 m/s 673 mmHg 89%
03:00 +7°C° 0 mm 1 m/s 672 mmHg 87%
04:00 +7°C° 0 mm 1 m/s 672 mmHg 86%
05:00 +7°C° 0 mm 1 m/s 672 mmHg 84%
06:00 +8°C° 0 mm 1 m/s 672 mmHg 82%
07:00 +8°C° 0 mm 1 m/s 671 mmHg 80%
08:00 +11°C° 0 mm 1 m/s 672 mmHg 72%
09:00 +14°C° 0 mm 1 m/s 672 mmHg 64%
10:00 +15°C° 0 mm 0 m/s 672 mmHg 56%
11:00 +16°C° 0 mm 0 m/s 672 mmHg 51%
12:00 +19°C° 0 mm 1 m/s 672 mmHg 47%
13:00 +20°C° 0 mm 1 m/s 671 mmHg 42%
14:00 +20°C° 0 mm 1 m/s 671 mmHg 49%
15:00 +19°C° 0 mm 1 m/s 671 mmHg 56%
16:00 +18°C° 0 mm 1 m/s 670 mmHg 63%
17:00 +15°C° 0 mm 1 m/s 670 mmHg 71%
18:00 +13°C° 0 mm 1 m/s 669 mmHg 78%
19:00 +10°C° 0 mm 1 m/s 669 mmHg 85%
20:00 +10°C° 0 mm 1 m/s 669 mmHg 85%
21:00 +10°C° 0 mm 2 m/s 669 mmHg 84%
22:00 +10°C° 0 mm 2 m/s 669 mmHg 83%
23:00 +9°C° 0 mm 2 m/s 668 mmHg 84%

2 Outubro, Sexta-feira

Tempo Temperatura Precipitação Vento Pressão Humidade
00:00 +9°C° 0 mm 2 m/s 668 mmHg 86%
01:00 +9°C° 0 mm 2 m/s 668 mmHg 87%
02:00 +9°C° 0 mm 2 m/s 667 mmHg 86%
03:00 +9°C° 0 mm 2 m/s 667 mmHg 84%
04:00 +9°C° 0 mm 2 m/s 667 mmHg 83%
05:00 +9°C° 0 mm 2 m/s 667 mmHg 84%
06:00 +10°C° 0 mm 1 m/s 667 mmHg 86%
07:00 +9°C° 0 mm 1 m/s 667 mmHg 87%
08:00 +10°C° 0.3 mm 1 m/s 667 mmHg 88%
09:00 +11°C° 0.3 mm 1 m/s 667 mmHg 89%
10:00 +11°C° 0.3 mm 1 m/s 667 mmHg 90%
11:00 +11°C° 0.7 mm 1 m/s 667 mmHg 92%
12:00 +11°C° 0.7 mm 1 m/s 667 mmHg 95%
13:00 +10°C° 0.7 mm 1 m/s 667 mmHg 98%
14:00 +10°C° 0.6 mm 1 m/s 667 mmHg 98%
15:00 +10°C° 0.6 mm 1 m/s 667 mmHg 98%
16:00 +9°C° 0.6 mm 1 m/s 667 mmHg 98%
17:00 +9°C° 0.1 mm 1 m/s 667 mmHg 97%
18:00 +9°C° 0.1 mm 1 m/s 667 mmHg 97%
19:00 +9°C° 0.1 mm 1 m/s 666 mmHg 97%
20:00 +8°C° 0 mm 2 m/s 666 mmHg 96%
21:00 +8°C° 0 mm 2 m/s 665 mmHg 96%
22:00 +8°C° 0 mm 2 m/s 665 mmHg 95%
23:00 +8°C° 0 mm 2 m/s 664 mmHg 95%
Mostrar mais